Philadelphia, PA

6:07 PM EST on December 08, 2019 (GMT -0500)
Philadelphia International

Weather History for KPHL - June, 2019

Change the Weather History Date:

Sunday, June 2, 2019

  Actual Average Record
Temperature  
Mean Temperature 73 °F 69 °F  
Max Temperature 82 °F 79 °F 98 °F (1925)
Min Temperature 63 °F 60 °F 46 °F (1907)
Degree Days  
Heating Degree Days 0 1  
Month to date heating degree days 0 2  
Since 1 June heating degree days 0 2  
Since 1 July heating degree days 4359 4604  
Cooling Degree Days 8 5  
Month to date cooling degree days 18 10  
Year to date cooling degree days 168 101  
Since 1 June cooling degree days 18 10  
Growing Degree Days 22 (Base 50)    
Moisture  
Dew Point 61 °F    
Average Humidity 65    
Maximum Humidity 84    
Minimum Humidity 45    
Precipitation  
Precipitation 0.37 in 0.12 in 2.96 in (1959)
Month to date precipitation 0.38 0.24  
Year to date precipitation 19.66 16.98  
Snow  
Snow 0.00 in 0.00 in 0.00 in ()
Month to date snowfall 0.0 0.0  
Since 1 June snowfall 0.0 0.0  
Since 1 July snowfall 17.1 22.4  
Snow Depth 0.00 in    
Sea Level Pressure  
Sea Level Pressure 29.74 in    
Wind  
Wind Speed 7 mph (WSW)    
Max Wind Speed 33 mph    
Max Gust Speed 45 mph    
Visibility 9 miles    
Events Rain , Thunderstorm    
T = Trace of Precipitation, MM = Missing Value Source: NWS Daily Summary

Daily Weather History Graph

Daily Weather History Graph

Search for Another Location

Airport or City:

Astronomy

Jun. 02, 2019 Rise Set
Actual Time 5:34 AM EDT 8:23 PM EDT
Civil Twilight 5:02 AM EDT 8:56 PM EDT
Nautical Twilight 4:21 AM EDT 9:36 PM EDT
Astronomical Twilight 3:35 AM EDT 10:22 PM EDT
Moon 5:12 AM EDT (6/2) 7:40 PM EDT (6/2)
Length of Visible Light 15h 53m
Length of Day
14h 49m
Waning Crescent, 1% of the Moon is Illuminated
Jun 2
Waning Crescent
Jun 3
New
Jun 10
First Quarter
Jun 17
Full
Jun 25
Last Quarter

Hourly Weather History & Observations

Time (EDT) Temp. Heat Index Dew Point Humidity Pressure Visibility Wind Dir Wind Speed Gust Speed Precip Events Conditions
12:09 AM 71.1 °F - 59.0 °F 66% 29.83 in 9.0 mi WSW 11.5 mph - 0.01 in Rain Light Rain
12:23 AM 70.0 °F - 59.0 °F 68% 29.83 in 10.0 mi WNW 13.8 mph - 0.01 in Rain Light Rain
12:54 AM 68.0 °F - 59.0 °F 73% 29.82 in 10.0 mi WNW 6.9 mph - 0.01 in Rain Light Rain
1:54 AM 66.9 °F - 57.9 °F 73% 29.78 in 10.0 mi NW 3.5 mph - 0.00 in   Mostly Cloudy
2:54 AM 66.0 °F - 61.0 °F 84% 29.75 in 10.0 mi SSW 4.6 mph - N/A   Mostly Cloudy
3:54 AM 66.0 °F - 60.1 °F 81% 29.74 in 10.0 mi SW 6.9 mph - N/A   Mostly Cloudy
4:54 AM 64.9 °F - 59.0 °F 81% 29.75 in 10.0 mi North 4.6 mph - N/A   Mostly Cloudy
5:54 AM 64.0 °F - 59.0 °F 84% 29.76 in 10.0 mi Calm Calm - N/A   Mostly Cloudy
6:54 AM 66.0 °F - 60.1 °F 81% 29.77 in 10.0 mi SW 4.6 mph - N/A   Mostly Cloudy
7:54 AM 68.0 °F - 59.0 °F 73% 29.76 in 10.0 mi WSW 3.5 mph - N/A   Mostly Cloudy
8:54 AM 69.1 °F - 57.9 °F 68% 29.78 in 10.0 mi WSW 3.5 mph - N/A   Mostly Cloudy
9:54 AM 73.0 °F - 59.0 °F 61% 29.78 in 10.0 mi SSW 6.9 mph - N/A   Mostly Cloudy
10:54 AM 75.9 °F - 60.1 °F 58% 29.77 in 10.0 mi SSW 9.2 mph - N/A   Mostly Cloudy
11:54 AM 77.0 °F - 60.1 °F 56% 29.77 in 10.0 mi SSW 5.8 mph - N/A   Mostly Cloudy
12:54 PM 79.0 °F - 62.1 °F 56% 29.74 in 10.0 mi SSE 4.6 mph - N/A   Scattered Clouds
1:54 PM 81.0 °F 81.9 °F 62.1 °F 52% 29.73 in 10.0 mi SW 6.9 mph - N/A   Scattered Clouds
2:54 PM 82.0 °F 83.0 °F 62.1 °F 51% 29.70 in 10.0 mi SW 9.2 mph - N/A   Scattered Clouds
3:54 PM 79.0 °F - 62.1 °F 56% 29.70 in 10.0 mi West 12.7 mph - 0.00 in Rain Light Rain
4:07 PM 77.0 °F - 63.0 °F 62% 29.70 in 10.0 mi WNW 11.5 mph - 0.00 in Rain , Thunderstorm Thunderstorms and Rain
4:54 PM 79.0 °F - 62.1 °F 56% 29.68 in 10.0 mi West 5.8 mph - 0.01 in   Mostly Cloudy
5:54 PM 81.0 °F 81.7 °F 61.0 °F 50% 29.67 in 10.0 mi WSW 9.2 mph - N/A   Mostly Cloudy
6:54 PM 81.0 °F 81.7 °F 61.0 °F 50% 29.68 in 10.0 mi Variable 4.6 mph - N/A   Mostly Cloudy
7:00 PM 80.1 °F 81.1 °F 61.0 °F 52% 29.67 in 7.0 mi SSW 4.6 mph - N/A Thunderstorm Thunderstorm
7:10 PM 80.1 °F 81.2 °F 62.1 °F 54% 29.71 in 3.0 mi WSW 18.4 mph 32.2 mph 0.00 in Rain , Thunderstorm Thunderstorms and Rain
7:13 PM 75.9 °F - 64.9 °F 69% 29.74 in 1.0 mi WSW 33.4 mph 39.1 mph 0.00 in Rain , Thunderstorm Heavy Thunderstorms and Rain
7:19 PM 70.0 °F - 63.0 °F 78% 29.72 in 3.0 mi Variable 4.6 mph 44.9 mph 0.06 in Rain , Thunderstorm Thunderstorms and Rain
7:24 PM 73.0 °F - 63.0 °F 71% 29.72 in 2.0 mi West 15.0 mph 44.9 mph 0.32 in Rain , Thunderstorm Thunderstorms and Rain
7:32 PM 72.0 °F - 62.1 °F 71% 29.73 in 5.0 mi SW 17.3 mph 24.2 mph 0.35 in Rain , Thunderstorm Light Thunderstorms and Rain
7:47 PM 71.1 °F - 64.0 °F 78% 29.73 in 7.0 mi SW 11.5 mph - 0.36 in Rain Light Rain
7:54 PM 70.0 °F - 64.0 °F 81% 29.73 in 7.0 mi SSW 11.5 mph - 0.36 in Rain Light Rain
8:12 PM 69.1 °F - 64.0 °F 84% 29.72 in 10.0 mi SSW 9.2 mph - 0.00 in Thunderstorm Thunderstorm
8:38 PM 70.0 °F - 64.9 °F 84% 29.72 in 10.0 mi South 6.9 mph - 0.00 in   Mostly Cloudy
8:54 PM 70.0 °F - 64.0 °F 81% 29.72 in 10.0 mi WSW 6.9 mph - 0.00 in   Mostly Cloudy
9:54 PM 70.0 °F - 64.9 °F 84% 29.76 in 10.0 mi NNW 15.0 mph - N/A   Overcast
10:54 PM 70.0 °F - 61.0 °F 73% 29.77 in 10.0 mi NW 12.7 mph - N/A   Mostly Cloudy
11:54 PM 66.0 °F - 45.0 °F 47% 29.81 in 10.0 mi North 11.5 mph 23.0 mph N/A   Mostly Cloudy